Track YAOGAN-31 B now! 10-day predictions YAOGAN-31 B is classified as:
1 43276U 18034B 24326.15725702 -.00000010 00000-0 11613-3 0 9991 2 43276 63.3961 125.1467 0224192 5.7423 354.6094 13.45369230325129